KF6ILA Weather Reports


Display with metric or nautical units.
time (UTC)temp
F
wind
direction
speed
MPH
gust
MPH
rain 1hr
in
rain 24hr
in
rain mn
in
humidity
%
barometer
mb
20260503033753 60 270 7.0 9.0 0.00 0.00 0.00 37 1012.2
20260503032304 61 269 6.0 8.0 0.00 0.00 0.00 41 1012.8
20260503031308 61 267 6.0 9.0 0.00 0.00 0.00 46 1012.8
20260503030811 61 265 7.0 9.0 0.00 0.00 0.00 46 1012.8
20260503030314 62 269 7.0 11.0 0.00 0.00 0.00 50 1012.6
20260503025817 62 271 7.0 11.0 0.00 0.00 0.00 53 1012.7
20260503025320 62 269 8.0 11.0 0.00 0.00 0.00 54 1012.7
20260503023829 62 263 9.0 12.0 0.00 0.00 0.00 57 1012.5
20260503023332 63 261 9.0 13.0 0.00 0.00 0.00 58 1012.5
20260503022834 63 265 10.0 13.0 0.00 0.00 0.00 61 1012.5
20260503021344 63 258 10.0 14.0 0.00 0.00 0.00 64 1012.3
20260503020350 64 256 9.0 14.0 0.00 0.00 0.00 68 1012.3
20260503015853 64 252 10.0 13.0 0.00 0.00 0.00 67 1012.3
20260503014858 65 260 9.0 15.0 0.00 0.00 0.00 63 1012.3
20260503011917 66 253 11.0 16.0 0.00 0.00 0.00 57 1012.2
20260503011420 67 256 10.0 16.0 0.00 0.00 0.00 56 1012.2
20260503010426 68 256 10.0 14.0 0.00 0.00 0.00 60 1012.2
20260503003941 70 256 9.0 16.0 0.00 0.00 0.00 55 1012.3
20260503003444 71 255 9.0 14.0 0.00 0.00 0.00 54 1012.3
20260503002450 71 267 10.0 15.0 0.00 0.00 0.00 49 1012.2
20260503001456 72 249 10.0 15.0 0.00 0.00 0.00 52 1012.2
20260503000502 72 279 9.0 14.0 0.00 0.00 0.00 50 1012.4
20260502233023 75 251 8.0 12.0 0.00 0.00 0.00 44 1012.4
20260502225544 73 287 7.0 14.0 0.00 0.00 0.00 43 1011.8
20260502224549 74 262 8.0 16.0 0.00 0.00 0.00
20260502224053 74 266 10.0 16.0 0.00 0.00 0.00 45 1012.1
20260502223556 74 270 9.0 15.0 0.00 0.00 0.00 41
20260502220614 76 289 8.0 0.0 5.00 0.00 0.00 44 101.2
20260502215620 79 179 8.0 15.0 0.00 0.00 0.00 21 1013.1
20260502215123 80 144 7.0 15.0 0.00 0.00 0.00 22 1013.1
20260502214626 80 102 8.0 15.0 0.00 0.00 0.00 23 1013.2
20260502214129 80 134 7.0 16.0 0.00 0.00 0.00 23 1013.2
20260502213632 80 161 8.0 16.0 0.00 0.00 0.00 23 1013.2
20260502212638 81 164 12.0 19.0 0.00 0.00 0.00 21 1013.2
20260502212141 81 141 6.0 19.0 0.00 0.00 0.00 23 1013.2
20260502211644 80 136 9.0 16.0 0.00 0.00 0.00 23 1013.2
20260502211147 80 154 8.0 18.0 0.00 0.00 0.00 24 1013.1
20260502210153 79 121 6.0 21.0 0.00 0.00 0.00 23 1013.0
20260502205159 79 130 8.0 20.0 0.00 0.00 0.00 24 1013.5
20260502204702 79 169 9.0 20.0 0.00 0.00 0.00 23 1013.6
20260502204205 78 163 8.0 19.0 0.00 0.00 0.00 23 1013.7
20260502203708 79 166 13.0 20.0 0.00 0.00 0.00 22 1013.6
20260502203211 80 141 11.0 23.0 0.00 0.00 0.00 24 1013.7
20260502202714 80 116 12.0 23.0 0.00 0.00 0.00 24 1013.5
20260502202217 80 123 15.0 22.0 0.00 0.00 0.00 23 1013.6
20260502201720 80 117 11.0 21.0 0.00 0.00 0.00 23 1013.8
20260502201223 79 124 10.0 21.0 0.00 0.00 0.00 27 1013.8
20260502200726 79 131 11.0 19.0 0.00 0.00 0.00 25 1013.9
20260502200229 79 140 12.0 19.0 0.00 0.00 0.00 23 1013.9
20260502195732 79 130 8.0 19.0 0.00 0.00 0.00 24 1014.1
20260502195235 79 130 12.0 19.0 0.00 0.00 0.00 24 1014.0
20260502194738 80 168 8.0 18.0 0.00 0.00 0.00 23 1014.1
20260502194241 81 119 11.0 18.0 0.00 0.00 0.00 23 1014.3
20260502193744 81 121 13.0 20.0 0.00 0.00 0.00 24 1014.4
20260502193247 80 113 13.0 20.0 0.00 0.00 0.00 24 1014.5
20260502192750 80 153 7.0 18.0 0.00 0.00 0.00 25 1014.4
20260502191756 80 110 10.0 19.0 0.00 0.00 0.00 24 1014.8
20260502191259 79 123 11.0 19.0 0.00 0.00 0.00 25 1014.7
20260502190802 79 157 7.0 20.0 0.00 0.00 0.00 25 1014.8
20260502190305 79 108 12.0 20.0 0.00 0.00 0.00 24 1014.7
20260502185808 79 131 8.0 19.0 0.00 0.00 0.00 25 1014.8
20260502185311 79 136 8.0 20.0 0.00 0.00 0.00 23 1014.8
20260502184814 79 114 10.0 23.0 0.00 0.00 0.00 23 1014.9
20260502184317 79 120 15.0 23.0 0.00 0.00 0.00 23 1014.9
20260502183820 79 141 7.0 20.0 0.00 0.00 0.00 24 1014.8
20260502183323 79 124 14.0 22.0 0.00 0.00 0.00 24 1015.0
20260502182826 79 119 12.0 22.0 0.00 0.00 0.00 23 1015.0
20260502182329 79 125 14.0 22.0 0.00 0.00 0.00 23 1014.9
20260502181832 79 126 10.0 21.0 0.00 0.00 0.00 24 1015.0
20260502181335 78 131 8.0 21.0 0.00 0.00 0.00 25 1015.0
20260502180838 78 117 8.0 22.0 0.00 0.00 0.00 26 1015.1
20260502180341 78 135 10.0 22.0 0.00 0.00 0.00 25 1015.1
20260502170417 75 93 11.0 21.0 0.00 0.00 0.00 24 1015.3
20260502163932 74 104 9.0 17.0 0.00 0.00 0.00 27 1015.3
20260502163435 74 96 9.0 17.0 0.00 0.00 0.00 27 1015.5
20260502162938 74 90 5.0 13.0 0.00 0.00 0.00 28 1014.6
20260502162441 73 85 5.0 16.0 0.00 0.00 0.00 28 1014.5
20260502161944 73 91 10.0 18.0 0.00 0.00 0.00 26 1014.5
20260502161447 72 93 10.0 18.0 0.00 0.00 0.00 27 1014.5
20260502160950 72 93 11.0 19.0 0.00 0.00 0.00 26 1014.6
20260502160453 72 89 12.0 19.0 0.00 0.00 0.00 26 1014.5
20260502152020 70 89 9.0 14.0 0.00 0.00 0.00 30 1014.6
20260502151523 70 94 8.0 14.0 0.00 0.00 0.00 31 1014.6
20260502151026 69 85 6.0 13.0 0.00 0.00 0.00 33 1014.5
20260502150529 69 83 8.0 14.0 0.00 0.00 0.00 32 1014.5
20260502121214 58 0 0.0 0.0 0.00 0.00 0.00 45 1013.3
20260502120717 58 0 0.0 0.0 0.00 0.00 0.00 45 1013.4
20260502114232 57 0 0.0 0.0 0.00 0.00 0.00 47 1013.3
20260502111747 58 0 0.0 0.0 0.00 0.00 0.00 46 1013.1
20260502111250 58 0 0.0 0.0 0.00 0.00 0.00 46 1013.1
20260502110753 59 0 0.0 1.0 0.00 0.00 0.00 45 1013.1
20260502110256 59 0 0.0 1.0 0.00 0.00 0.00 44 1013.1
20260502104805 59 0 0.0 2.0 0.00 0.00 0.00 45 1013.2
20260502104308 59 191 1.0 3.0 0.00 0.00 0.00 44 1013.2
20260502103811 59 191 1.0 3.0 0.00 0.00 0.00 43 1013.2
20260502103314 59 191 1.0 3.0 0.00 0.00 0.00 44 1013.1
20260502102320 59 0 0.0 2.0 0.00 0.00 0.00 45 1013.1
20260502090905 60 0 0.0 3.0 0.00 0.00 0.00 42 1013.3
20260502071514 62 280 4.0 6.0 0.00 0.00 0.00 38 1013.9
20260502071017 62 281 5.0 7.0 0.00 0.00 0.00 39 1014.0
20260502070520 62 280 4.0 7.0 0.00 0.00 0.00 39 1014.0
20260502070023 62 281 5.0 7.0 0.00 0.00 0.00 39 1014.0
20260502065526 62 282 5.0 7.0 0.00 0.00 0.00 39 1014.0
20260502065123 62 277 5.0 6.0 0.00 0.00 0.00 39 1014.0
20260502065029 62 277 5.0 6.0 0.00 0.00 0.00 39 1014.0
20260502064532 62 276 4.0 6.0 0.00 0.00 0.00 39 1013.9
20260502064035 62 277 4.0 7.0 0.00 0.00 0.00 40 1014.1
20260502063041 61 276 5.0 8.0 0.00 0.00 0.00 41 1014.1
20260502062544 61 277 6.0 8.0 0.00 0.00 0.00 42 1014.1
20260502061550 61 277 5.0 6.0 0.00 0.00 0.00 43 1014.0
20260502061124 61 280 4.0 6.0 0.00 0.00 0.00 44 1014.0
20260502061053 61 280 4.0 6.0 0.00 0.00 0.00 44 1014.0
20260502060059 61 282 5.0 7.0 0.00 0.00 0.00 45 1013.9
20260502055602 61 281 5.0 7.0 0.00 0.00 0.00 46 1013.9
20260502055105 61 279 5.0 7.0 0.00 0.00 0.00 47 1013.8
20260502054112 61 287 5.0 8.0 0.00 0.00 0.00 48
20260502052620 61 288 6.0 9.0 0.00 0.00 0.00 51 1013.8
20260502050632 61 277 6.0 8.0 0.00 0.00 0.00 53 1013.9
20260502045141 60 281 6.0 8.0 0.00 0.00 0.00 57 1013.8
20260502042656 60 275 5.0 9.0 0.00 0.00 0.00 64 1013.8
20260502041205 60 278 6.0 10.0 0.00 0.00 0.00 69 1013.6
20260502040211 60 280 6.0 10.0 0.00 0.00 0.00 72 1013.6
20260502035714 60 289 6.0 10.0 0.00 0.00 0.00 73 1013.5
20260502035217 60 282 7.0 9.0 0.00 0.00 0.00 73 1013.5
20260502034720 60 282 6.0 9.0 0.00 0.00 0.00 74 1013.5